Probability
0 0 1 2 1 0 0 0 1 2 3 4 4 2 1 0 0 0 0 0 0 0 0 0 0 0 0 0 0 0 0 0 0 0 0 0 0 0 0 0 0 0 0
0 0 1 1 1 0 1 1 2 2 3 3 3 1 0 0 0 0 0 0 0 0 0 0 0 0 0 0 0 0 0 0 0 0 0 0 0 0 0 0 0 0 0
0 0 0 0 0 0 1 3 3 2 2 3 2 1 0 0 0 0 0 0 0 0 0 0 0 0 0 0 0 0 0 0 0 0 0 0 0 0 0 0 0 0 0
0 0 0 0 0 1 2 3 3 2 2 3 3 1 0 0 0 0 0 0 0 0 0 0 1 1 0 0 0 0 0 0 0 0 0 0 0 0 0 0 0 0 0
0 0 0 0 0 1 2 2 2 1 2 3 3 2 1 0 0 0 0 0 0 0 0 1 1 1 0 0 0 0 0 0 0 0 0 0 0 0 0 0 0 0 0
0 0 0 0 1 2 3 3 1 1 2 3 3 3 1 0 0 0 0 0 0 0 0 1 1 1 0 0 0 0 0 0 0 0 0 0 0 0 0 0 0 0 0
0 0 0 1 2 4 5 4 1 1 2 3 3 3 2 0 0 0 0 0 0 0 1 2 1 0 0 0 0 0 0 0 0 0 0 0 0 0 0 0 0 0 0
0 0 0 1 2 3 3 2 1 0 1 2 3 2 1 0 0 0 0 0 0 1 2 2 1 0 0 0 0 0 0 0 0 0 0 0 0 0 0 0 0 0 0
0 0 0 0 1 1 1 1 0 0 0 1 1 1 1 0 0 0 0 0 0 1 1 1 0 0 0 0 0 0 0 0 0 0 0 0 0 0 0 0 0 0 0
0 0 0 0 0 0 0 0 0 0 0 0 0 0 0 0 0 0 0 0 0 0 0 0 0 0 0 0 0 0 0 0 0 0 0 0 0 0 0 0 0 0 1
0 0 0 0 0 0 0 0 0 0 0 0 0 0 0 0 0 0 0 0 0 0 0 0 0 0 0 0 0 0 0 0 0 0 0 0 0 0 0 0 0 1 2
0 0 0 0 0 0 0 0 0 0 0 0 0 0 0 0 0 0 0 0 0 0 0 0 0 0 0 0 0 0 0 0 0 0 0 0 0 0 0 0 0 1 2
0 0 0 0 0 0 0 0 0 0 0 0 0 0 0 0 0 0 0 0 0 0 0 0 0 0 0 0 0 0 0 0 0 0 0 0 0 0 0 0 0 0 1
0 0 0 0 0 0 0 0 0 0 0 0 0 0 0 0 0 0 0 0 0 0 0 0 0 0 0 0 0 0 0 0 0 0 0 0 0 0 0 0 0 1 1
1 1 1 0 0 0 0 0 0 0 0 0 0 0 0 0 0 0 0 0 0 0 0 0 0 0 0 0 0 0 0 0 0 0 0 0 0 0 0 0 0 2 4
2 2 2 1 0 0 0 0 0 0 0 0 0 0 0 0 0 0 0 0 0 0 0 0 0 0 0 0 0 0 0 0 0 0 0 0 0 0 0 0 0 2 4
3 3 3 2 1 0 0 0 0 0 0 0 0 0 0 0 0 0 0 0 0 0 0 0 0 0 0 0 0 0 0 0 0 0 0 0 0 0 0 0 0 1 2
3 3 3 2 1 0 0 0 0 0 0 0 0 0 0 0 0 0 0 0 0 0 0 0 0 0 0 0 0 0 0 0 0 0 0 0 0 0 0 0 0 0 1
3 3 3 1 0 0 0 0 0 0 0 0 0 0 0 0 0 0 0 0 0 0 0 0 0 0 0 0 0 0 0 0 0 0 0 0 0 0 0 0 0 0 0
3 3 2 1 0 0 0 0 0 0 0 0 0 0 0 0 0 0 0 0 0 0 0 0 0 0 0 0 0 0 0 0 0 0 0 0 0 0 0 0 0 0 0
1 2 2 1 0 0 0 0 0 0 0 0 0 0 0 0 0 0 0 0 0 0 0 0 0 0 0 0 0 0 0 0 0 0 0 0 0 0 0 0 0 0 0
0 1 1 1 0 0 0 0 0 0 0 0 0 0 0 0 0 0 0 0 0 0 0 0 0 0 0 0 0 0 0 0 0 0 0 0 0 0 0 0 0 0 0
0 0 0 0 0 0 0 0 0 0 0 0 0 0 0 0 0 0 0 0 0 0 0 0 0 0 0 0 0 0 0 0 0 0 0 0 0 0 0 0 0 0 0
0 0 0 0 0 0 0 0 0 0 0 0 0 0 0 0 0 0 0 0 0 0 0 0 0 0 0 0 0 0 0 0 0 0 0 0 0 0 0 0 0 0 0
0 0 0 0 0 0 0 0 0 0 0 0 0 0 0 0 0 0 0 0 0 0 0 0 0 0 0 0 0 0 0 0 0 0 0 0 0 0 0 0 0 0 0
0 0 0 0 0 0 0 0 0 0 0 0 0 0 0 0 0 0 0 0 0 0 0 0 0 0 0 0 0 0 0 0 0 0 0 0 0 0 0 0 0 0 0
Wind_Speed
2 2 3 2 4 6 7 7 8 8 8 9 9 10 10 10 9 9 9 9 9 9 9 10 10 10 10 10 10 11 12 11 10 10 10 11 11 11 11 11 10 6 11
1 1 1 2 4 5 6 7 7 7 7 8 9 9 9 9 9 9 9 9 9 9 9 9 9 10 10 10 10 11 11 11 11 10 10 9 9 10 10 10 10 7 10
1 0 0 1 4 5 6 6 6 7 7 8 8 8 9 9 9 9 8 8 8 9 9 9 9 10 10 10 10 10 10 11 11 10 9 5 5 9 9 10 10 10 10
1 1 0 2 4 5 5 6 6 6 7 7 8 8 8 8 8 8 8 8 8 8 9 9 9 9 9 9 10 10 10 10 10 9 5 4 4 7 8 9 9 10 9
2 2 1 2 4 5 5 5 5 6 7 7 7 7 7 7 8 8 7 8 8 8 8 9 8 8 8 9 9 9 10 10 10 8 4 4 3 6 8 8 8 9 9
3 3 2 3 4 5 5 5 5 5 6 6 6 7 7 7 7 7 7 7 7 7 7 8 8 8 8 8 8 9 9 9 8 4 4 4 3 5 7 7 7 8 8
2 3 2 4 4 4 5 5 5 4 5 6 6 6 6 6 6 6 6 6 7 7 7 8 8 8 8 7 8 8 8 8 5 4 4 3 3 5 6 6 7 7 6
2 3 3 4 5 4 4 4 4 4 4 5 5 6 5 6 6 6 6 6 6 6 7 7 7 7 7 7 7 8 8 7 5 4 3 3 4 5 5 6 6 6 6
3 3 3 3 4 4 5 4 4 4 4 4 5 6 6 6 6 5 5 5 5 6 6 7 7 7 7 7 7 7 7 7 4 2 3 2 4 5 4 4 4 5 5
3 3 3 3 3 3 3 4 5 4 4 5 5 5 6 6 5 6 5 5 5 5 6 6 7 6 7 7 7 7 7 5 3 3 2 2 4 4 4 4 3 4 4
3 3 3 3 3 3 3 3 4 4 5 5 4 5 4 3 3 3 4 5 5 5 5 6 6 6 7 6 6 7 5 2 2 2 2 3 4 4 4 4 3 3 3
2 2 2 2 2 2 2 2 2 2 3 3 3 3 2 2 2 3 4 5 5 6 5 6 6 6 5 3 4 5 2 2 2 1 2 4 4 3 3 3 3 2 2
1 1 2 2 1 2 1 1 1 1 1 2 2 2 2 2 2 2 2 2 3 4 3 4 4 3 2 2 2 2 2 2 1 1 2 4 4 3 3 3 3 3 2
0 1 1 1 1 1 1 1 1 1 1 1 1 2 2 1 1 1 1 1 1 1 2 2 1 2 2 2 2 2 2 1 1 1 2 4 4 3 3 3 3 3 2
1 1 1 0 0 0 1 1 1 1 1 1 1 1 2 1 1 1 1 1 1 1 1 1 1 1 1 1 1 1 1 1 1 1 1 4 4 4 4 3 3 3 2
2 2 1 0 0 0 0 0 0 1 1 1 1 2 2 1 1 1 1 1 1 1 1 0 0 0 0 1 1 1 1 1 1 1 1 2 4 4 4 4 3 3 3
2 1 1 1 0 0 0 0 0 1 1 1 1 2 2 2 1 1 1 1 1 1 0 0 0 1 1 1 1 1 1 1 1 1 1 1 2 3 5 5 4 4 4
1 1 1 0 1 1 0 0 1 1 1 1 1 1 2 2 2 1 1 1 1 0 0 0 0 0 1 1 1 2 1 1 1 1 1 1 1 1 3 5 5 5 4
1 1 1 1 1 1 0 0 1 1 1 1 1 1 1 2 2 1 1 1 1 1 0 0 0 0 0 1 2 2 2 1 2 1 1 1 1 1 1 3 5 6 5
0 1 1 1 0 1 1 1 1 1 1 1 1 1 1 1 1 1 1 1 1 1 1 1 1 1 0 1 2 2 2 2 2 2 2 1 1 1 0 1 1 3 5
1 1 1 1 1 1 1 0 0 0 0 1 1 1 1 1 1 0 0 1 1 0 1 1 1 1 1 1 1 2 2 2 2 2 1 1 1 1 0 1 1 1 2
1 1 1 1 1 1 1 1 0 0 0 0 1 1 1 1 1 0 0 0 0 0 1 1 1 1 1 0 0 1 2 2 2 2 1 1 1 1 1 1 1 1 1
1 1 1 1 1 1 1 1 1 1 1 1 1 1 1 1 1 1 1 0 1 1 1 1 0 0 1 1 0 1 1 2 3 2 1 1 1 1 1 1 1 1 1
1 0 1 0 1 1 1 1 2 1 1 1 1 1 1 1 1 1 1 1 1 1 1 1 1 1 1 1 1 1 1 1 1 3 2 1 1 2 2 2 2 2 2
0 1 1 1 1 1 1 1 2 1 1 1 1 1 1 1 1 1 1 1 1 1 1 1 1 1 1 1 1 1 1 1 1 2 3 2 2 2 2 2 2 2 2
1 1 1 1 1 1 1 1 1 1 1 1 1 1 1 1 1 1 2 1 1 1 1 2 2 2 2 2 2 1 1 1 1 1 3 3 3 2 2 2 2 2 2
Wind_Direction
302 295 279 106 112 107 98 92 88 87 89 91 90 89 87 84 81 76 76 75 74 74 74 74 75 75 72 69 67 66 63 59 60 60 62 65 66 67 65 63 60 60 67
273 254 270 118 112 109 103 96 91 91 95 94 93 91 89 85 83 78 73 75 74 73 73 73 72 72 70 69 69 68 65 62 61 58 54 55 60 65 66 65 64 64 64
19 187 211 116 107 105 105 100 94 91 95 96 95 93 90 86 82 79 74 73 73 71 70 72 73 71 69 68 69 69 68 67 63 58 48 33 47 66 68 66 64 64 65
35 52 82 96 102 105 104 102 97 92 92 96 95 92 89 86 83 78 75 73 70 69 67 69 72 72 70 70 70 69 70 68 63 53 39 26 30 64 67 67 63 62 62
36 23 16 77 104 105 102 97 97 94 93 93 95 93 90 86 83 78 75 75 71 70 68 68 68 70 71 72 71 70 70 68 61 46 29 24 28 60 66 67 65 62 59
44 25 18 58 91 100 101 99 93 93 92 94 94 96 93 88 84 80 78 77 75 73 72 69 66 67 70 73 73 69 68 66 57 39 25 18 23 61 70 71 69 66 62
53 31 27 41 63 85 94 93 94 93 93 95 92 93 91 89 86 82 79 78 75 72 72 71 69 67 67 69 72 69 66 65 57 43 25 17 23 54 68 72 73 69 65
64 36 33 35 45 56 75 86 85 86 89 92 87 83 83 86 85 83 80 83 79 77 77 76 71 70 69 66 68 69 65 59 54 40 23 15 20 43 61 63 73 71 68
52 44 34 32 37 38 47 57 67 74 77 86 83 74 69 74 78 73 75 84 83 80 80 76 72 69 69 66 65 67 68 58 49 32 19 6 16 33 52 56 67 69 66
45 40 34 27 28 28 27 44 49 54 59 67 76 69 64 63 63 60 61 77 81 82 82 78 73 69 67 64 62 59 60 52 42 26 7 358 17 25 31 41 50 66 65
26 20 27 31 28 24 26 40 49 48 50 57 60 61 62 57 54 56 54 65 75 79 81 80 76 70 61 58 54 48 44 42 37 20 356 358 17 24 28 37 39 57 71
343 348 5 18 32 28 29 37 44 47 51 51 54 54 58 57 49 52 56 59 67 69 72 73 68 60 52 42 38 37 34 34 33 3 349 357 12 25 29 29 27 30 56
253 326 354 355 20 40 30 37 45 41 52 53 60 52 56 61 54 45 54 47 52 60 59 59 53 43 40 32 30 29 24 16 7 340 342 355 1 8 13 10 13 9 29
317 288 329 0 14 30 36 37 71 57 55 48 55 72 75 75 64 53 52 46 49 51 58 52 53 45 36 32 34 29 23 7 343 334 332 347 350 349 347 347 346 351 343
254 280 289 353 3 18 56 15 51 63 64 44 39 48 66 94 88 72 64 41 46 59 67 61 56 42 26 15 23 18 8 0 342 335 331 345 350 347 336 334 337 339 336
244 247 250 192 197 44 82 43 36 45 54 58 48 40 49 68 88 77 73 54 27 53 84 124 168 52 13 7 11 359 336 327 332 325 325 337 345 346 344 330 325 323 325
241 241 216 194 148 126 106 72 53 38 55 55 45 42 50 50 65 64 87 70 7 7 78 93 56 25 21 8 349 330 314 313 307 309 314 308 321 336 340 337 328 321 315
224 217 225 168 137 145 93 100 72 53 62 48 48 45 42 42 52 62 57 22 357 3 91 110 90 37 353 343 317 308 306 297 281 277 274 286 316 331 336 341 337 330 322
219 197 188 162 168 176 94 65 88 85 70 52 52 50 31 38 46 53 51 15 7 6 27 307 360 343 319 325 309 305 300 275 262 269 261 252 242 297 328 335 343 344 334
181 159 148 129 128 114 83 56 66 55 45 45 34 31 35 30 40 50 47 28 26 19 2 355 303 326 296 302 314 308 297 278 262 244 243 247 245 264 315 332 340 340 338
80 110 132 108 88 103 87 90 176 216 321 1 358 19 24 17 36 72 35 38 23 352 328 351 336 340 348 22 5 323 312 284 262 245 226 224 251 261 248 283 315 336 322
164 145 138 141 137 153 166 174 195 204 204 261 344 2 9 7 7 348 90 201 309 328 2 2 16 346 320 10 72 349 318 311 306 276 237 224 240 253 257 269 283 307 309
188 195 183 181 169 158 127 92 56 49 42 22 341 327 331 321 338 335 255 218 218 191 222 264 289 333 286 297 273 172 195 259 305 291 261 242 242 240 250 257 258 273 283
224 200 149 117 93 91 126 131 136 167 242 249 268 288 314 309 307 321 295 254 225 222 219 239 267 295 226 262 292 290 249 217 247 296 295 283 262 247 245 257 247 251 258
178 118 117 100 80 75 119 152 175 217 261 284 314 304 305 312 315 324 312 293 277 265 249 244 267 275 245 238 254 289 297 302 254 242 277 295 295 259 246 250 243 243 250
90 85 89 96 63 57 96 129 192 230 281 307 309 290 296 302 292 307 308 287 267 265 250 242 236 248 255 265 266 267 255 239 255 243 258 272 277 274 262 247 243 249 251